Farmville, Virginia, United States (23901)
Lat: 37.30N, Lon: 78.39W
Wx Zone: VAZ060
Local Info
Past Weather Observations for Today

NOTE: This archive is for the closest National Weather Service station to Farmville. Information may differ from the station used for current weather conditions.

Click here for Long-term Archive

Time Weather Temperature Dewpoint Humidity Pressure Winds Precip Visibility
11:55
Clear
68°F / 20°C 34°F / 1°C 28% 29.95 in
(1014 mb)
S 11.5 mph
(S 19 kph)
- 10SM
11:35
Clear
68°F / 20°C 36°F / 2°C 30% 29.95 in
(1014 mb)
SW 9.2 mph
(SW 15 kph)
- 10SM
11:15
Clear
66°F / 19°C 36°F / 2°C 32% 29.98 in
(1015 mb)
SW 6.9 mph
(SW 11 kph)
- 10SM
10:55
Clear
66°F / 19°C 36°F / 2°C 32% 29.98 in
(1015 mb)
SSE 9.2 mph
(SSE 15 kph)
- 10SM
10:35
Clear
64°F / 18°C 43°F / 6°C 46% 29.98 in
(1015 mb)
SW 3.5 mph
(SW 6 kph)
- 10SM
10:15
Clear
63°F / 17°C 41°F / 5°C 45% 30.01 in
(1016 mb)
SW 6.9 mph
(SW 11 kph)
- 10SM
09:55
Clear
61°F / 16°C 41°F / 5°C 48% 30.01 in
(1016 mb)
SW 6.9 mph
(SW 11 kph)
- 10SM
09:35
Clear
59°F / 15°C 41°F / 5°C 51% 30.01 in
(1016 mb)
S 3.5 mph
(S 6 kph)
- 10SM
09:15
Clear
57°F / 14°C 43°F / 6°C 59% 30.01 in
(1016 mb)
SW 4.6 mph
(SW 7 kph)
- 10SM
08:55
Clear
54°F / 12°C 41°F / 5°C 63% 30.01 in
(1016 mb)
SW 4.6 mph
(SW 7 kph)
- 10SM
08:35
Clear
52°F / 11°C 43°F / 6°C 72% 30.01 in
(1016 mb)
SSW 3.5 mph
(SSW 6 kph)
- 10SM
08:15
Clear
46°F / 8°C 45°F / 7°C 93% 30.01 in
(1016 mb)
SW 3.5 mph
(SW 6 kph)
- 10SM
07:55
Clear
43°F / 6°C 41°F / 5°C 93% 30.01 in
(1016 mb)
SSE 3.5 mph
(SSE 6 kph)
- 10SM
07:35
Clear
Fog And Mist
37°F / 3°C 37°F / 3°C 100% 30.01 in
(1016 mb)
Calm - 4SM
07:15
Clear
Fog And Mist
34°F / 1°C 34°F / 1°C 100% 29.98 in
(1015 mb)
Calm - 5SM
06:55
Clear
Fog And Mist
34°F / 1°C 34°F / 1°C 100% 29.98 in
(1015 mb)
SSE 3.5 mph
(SSE 6 kph)
- 2SM
06:35
Clear
Fog And Mist
34°F / 1°C 34°F / 1°C 100% 30.01 in
(1016 mb)
Calm - 2SM
06:15
Clear
36°F / 2°C 34°F / 1°C 93% 30.01 in
(1016 mb)
Calm - 7SM
05:55
Obscured
Fog And Mist
36°F / 2°C 34°F / 1°C 93% 30.01 in
(1016 mb)
Calm - 1 1/2SM
05:35
Clear
Fog And Mist
36°F / 2°C 36°F / 2°C 100% 29.98 in
(1015 mb)
Calm - 5SM
05:15
Clear
36°F / 2°C 36°F / 2°C 100% 29.98 in
(1015 mb)
Calm - 10SM
04:55
Clear
36°F / 2°C 36°F / 2°C 100% 29.98 in
(1015 mb)
Calm - 7SM
04:35
Obscured
Fog And Mist
36°F / 2°C 36°F / 2°C 100% 29.98 in
(1015 mb)
Calm - 1 3/4SM
04:15
Clear
Fog And Mist
36°F / 2°C 36°F / 2°C 100% 29.98 in
(1015 mb)
Calm - 5SM
03:55
Clear
37°F / 3°C 37°F / 3°C 100% 29.98 in
(1015 mb)
Calm - 7SM
03:35
Clear
Fog And Mist
37°F / 3°C 37°F / 3°C 100% 29.98 in
(1015 mb)
Calm - 2 1/2SM
03:15
Clear
37°F / 3°C 37°F / 3°C 100% 29.98 in
(1015 mb)
Calm - 7SM
02:55
Clear
39°F / 4°C 39°F / 4°C 100% 29.98 in
(1015 mb)
Calm - 7SM
02:35
Clear
43°F / 6°C 41°F / 5°C 93% 29.98 in
(1015 mb)
Calm - 10SM
02:15
Clear
Fog And Mist
41°F / 5°C 39°F / 4°C 93% 29.98 in
(1015 mb)
Calm - 5SM
01:55
Obscured
Fog And Mist
37°F / 3°C 37°F / 3°C 100% 29.98 in
(1015 mb)
Calm - 1 3/4SM
01:35
Clear
43°F / 6°C 41°F / 5°C 93% 29.98 in
(1015 mb)
Calm - 7SM
01:15
Obscured
Fog And Mist
39°F / 4°C 39°F / 4°C 100% 29.95 in
(1014 mb)
Calm - 1SM
00:55
Clear
41°F / 5°C 39°F / 4°C 93% 29.95 in
(1014 mb)
Calm - 7SM
00:35
Obscured
Fog And Mist
41°F / 5°C 39°F / 4°C 93% 29.95 in
(1014 mb)
Calm - 1SM
00:15
Clear
Fog And Mist
43°F / 6°C 43°F / 6°C 100% 29.95 in
(1014 mb)
Calm - 5SM
Time Weather Temperature Dewpoint Humidity Pressure Winds Precip Visibility


Weather for websites

WeatherForYou.com, LLC is not responsible for any damages or problems caused by this service. Current weather conditions are obtained from the closest station including government and personal stations which may have varying degrees of accuracy. Weather forecasts are derived from the NOAA NDFD. Like all things, this site belongs to Jesus Christ... He just trusts me to maintain it. If you have any questions or comments email webmaster@weatherforyou.com

Copyright © 2014, WeatherForYou.com LLC. All rights reserved.